[[{"header":{"parameterUnit":"m.s-1","parameterCategory":1,"la1":30.2991,"la2":30.254,"lo1":-89.0895,"lo2":-89.0444,"dy":0.0017,"dx":0.0017,"nx":28,"ny":28,"refTime":"2024-11-23T09:00:00:Z","depth":0,"parameterNumber":2,"parameterNumberName":"U-component_of_WINDS"},"data":[0,0,0,0,0,0,0,0,0,0,0,0,0,0,0,0,0,0,0,0,0,0,0,0,0,0,0,0,0,0,0,0,0,0,0,0,0,0,0,0,0,0,0,0,0,0,0,0,0,0,0,0,0,0,0,0,0,0,0.9259,0.9259,0,0.9282,0.9282,0.9282,0.9275,0.9275,0.9274,0.9274,0.9294,0.9295,0.9296,0,0,0,0,0,0,0,0,0,0,0,0,0,0.9205,0.9206,0.9259,0.9259,0.9259,0.9282,0.9282,0.9282,0.9275,0.9275,0.9274,0.9273,0.9294,0.9295,0.9296,0,0,0,0,0,0,0,0,0,0,0,0,0,0.9228,0.9206,0.9259,0.9258,0.9259,0.9282,0.9282,0.9282,0.9275,0.9274,0.9274,0.9273,0.9293,0.9295,0.9296,0.932,0,0,0.9301,0.9302,0,0,0,0,0,0,0,0,0.9227,0.923,0.9258,0.9259,0.9259,0.9275,0.9271,0.9295,0.9275,0.9269,0.9274,0.9273,0.9288,0.929,0.9296,0.9321,0.9322,0.9301,0.9302,0.9303,0.9303,0,0,0,0,0,0,0,0.9225,0.9229,0.9268,0.9259,0.9259,0.9256,0.9259,0.9275,0.9282,0.9269,0.9269,0.9272,0.9288,0.9294,0.9296,0.9322,0.9301,0.9302,0.9303,0.9304,0.9366,0.9367,0,0,0,0,0,0,0.9224,0.9228,0.9267,0.9268,0.9241,0.9258,0.926,0.927,0.9282,0.9283,0.9272,0.9271,0.9292,0.9294,0.9297,0.9324,0.9303,0.9304,0.9305,0.9365,0.9366,0.9367,0,0,0,0,0,0,0.9223,0.9228,0.9266,0.9248,0.9253,0.9259,0.9271,0.9271,0.9277,0.9284,0.9285,0.9278,0.9292,0.9295,0.9314,0.9325,0.9305,0.9306,0.9364,0.9366,0.9367,0.9379,0,0,0,0,0,0,0.9221,0.9227,0.9237,0.9248,0.9254,0.9284,0.9271,0.9272,0.928,0.9279,0.929,0.9291,0.9291,0.9312,0.9316,0.9326,0.9307,0.9363,0.9365,0.9366,0.9378,0.9381,0.9383,0,0,0,0,0,0.9219,0.9239,0.9238,0.9242,0.9266,0.9285,0.9287,0.9289,0.9281,0.9291,0.9295,0.929,0.9323,0.9314,0.9318,0.9329,0.9363,0.9365,0.9366,0.9377,0.938,0.9383,0,0,0,0,0,0,0.9228,0.9241,0.9239,0.9263,0.9273,0.9283,0.9295,0.9293,0.9304,0.9302,0.9303,0.9305,0.9325,0.9329,0.9319,0.9352,0.9342,0.9344,0.9348,0.9351,0.9354,0.9352,0.9308,0,0,0,0,0,0.9233,0.9248,0.9258,0.9278,0.9283,0.9288,0.9296,0.9297,0.9306,0.931,0.9316,0.9324,0.9337,0.9345,0.9356,0.9379,0.938,0.9389,0.9391,0.9393,0.9395,0.9406,0.9409,0.9373,0.9373,0.9373,0,0,0.9243,0.9252,0.9261,0.928,0.9288,0.9301,0.9292,0.9307,0.9317,0.9312,0.933,0.9335,0.9345,0.9365,0.9375,0.937,0.9406,0.9395,0.9397,0.9398,0.9408,0.9411,0.9414,0.9374,0.9374,0.9373,0,0,0.9267,0.9277,0.9294,0.9302,0.9314,0.9317,0.9321,0.9332,0.9335,0.9354,0.935,0.9361,0.9383,0.9389,0.9395,0.9423,0.9418,0.9426,0.9439,0.945,0.9452,0.9455,0.9463,0.9466,0.9428,0.9428,0.9428,0,0.9278,0.93,0.9303,0.9318,0.9326,0.9324,0.934,0.9347,0.9362,0.9367,0.9361,0.9388,0.9394,0.9416,0.9422,0.9428,0.9431,0.9424,0.9452,0.9455,0.9457,0.9465,0.9468,0.9429,0.9429,0.9429,0.9429,0,0.9311,0.9326,0.9339,0.9354,0.9363,0.9379,0.9383,0.9392,0.9392,0.9396,0.9414,0.9422,0.9434,0.944,0.9439,0.9461,0.9457,0.9452,0.9441,0.9461,0.9468,0.9471,0.943,0.943,0.943,0.943,0,0,0.9341,0.9357,0.9362,0.9368,0.9381,0.9392,0.9408,0.9421,0.9428,0.9438,0.945,0.9468,0.9463,0.947,0.9471,0.948,0.9499,0.9474,0.9474,0.9477,0.9522,0.9524,0.9528,0.9497,0.9498,0.9498,0.952,0,0.9365,0.9393,0.9396,0.9421,0.9434,0.9432,0.9445,0.9454,0.9457,0.9468,0.9472,0.9484,0.9478,0.9482,0.9491,0.9495,0.9508,0.9494,0.9506,0.9507,0.9503,0.9532,0.9535,0.9555,0.9523,0.9524,0.9524,0,0.9397,0.9409,0.9435,0.9446,0.9451,0.9463,0.9475,0.9486,0.9495,0.9497,0.9505,0.9504,0.9519,0.9509,0.9528,0.9518,0.9524,0.9527,0.9527,0.9527,0.9516,0.9531,0.9562,0.9565,0.9529,0.9529,0.9528,0,0.9414,0.9437,0.9455,0.9461,0.9474,0.9482,0.9487,0.9496,0.9504,0.9514,0.9519,0.953,0.9536,0.9545,0.9546,0.9539,0.9565,0.9555,0.9566,0.9565,0.957,0.9569,0.9601,0.9576,0.9576,0.9576,0.9576,0,0.944,0.9456,0.9463,0.9474,0.9491,0.9494,0.951,0.9515,0.9523,0.9534,0.9533,0.9543,0.9545,0.9555,0.9557,0.9572,0.9575,0.9576,0.9575,0.9575,0.9575,0.9577,0.9575,0.9577,0.9577,0.9577,0.9576,0,0.9461,0.9467,0.9486,0.9497,0.95,0.9512,0.9521,0.9531,0.9535,0.9549,0.9552,0.9557,0.9569,0.9572,0.9587,0.9587,0.9605,0.9604,0.9602,0.9601,0.961,0.9609,0.9643,0.9648,0.9622,0.9622,0.9622,0,0.9477,0.9489,0.9501,0.9509,0.9515,0.9528,0.9535,0.9539,0.9547,0.9558,0.9566,0.9578,0.9588,0.9607,0.9612,0.9622,0.9621,0.9632,0.9622,0.9621,0.9619,0.9618,0.9618,0.9633,0.9634,0.9634,0.9634,0,0.9503,0.9505,0.9517,0.953,0.9539,0.9549,0.9559,0.9565,0.9569,0.9578,0.9591,0.9598,0.9613,0.9624,0.9635,0.9639,0.9637,0.9638,0.964,0.9639,0.9636,0.9636,0.9605,0.9636,0.9636,0.9636,0.9636,0.9636,0.9521,0.9531,0.9541,0.9554,0.9562,0.957,0.958,0.9585,0.9596,0.9609,0.961,0.9623,0.9632,0.9646,0.9651,0.9661,0.9657,0.9661,0.9662,0.9663,0.9663,0.9636,0.9663,0.9663,0.9663,0.9663,0.9663,0,0.9545,0.9552,0.9564,0.9577,0.9587,0.9586,0.9596,0.9604,0.9616,0.9625,0.9634,0.9648,0.9659,0.9665,0.9676,0.9682,0.9681,0.9685,0.9684,0.9684,0.9666,0.9662,0.9685,0.9685,0.9685,0.9685,0.9685,0.9685,0.9559,0.9576,0.9579,0.9599,0.9606,0.9619,0.9625,0.9633,0.9639,0.9655,0.9665,0.9669,0.9676,0.9687,0.9697,0.9698,0.9701,0.9705,0.9706,0.9688,0.9686,0.9684,0.968,0.9706,0.9706,0.9723,0.9723,0.9723]},{"header":{"parameterUnit":"m.s-1","parameterCategory":1,"la1":30.2991,"la2":30.254,"lo1":-89.0895,"lo2":-89.0444,"dy":0.0017,"dx":0.0017,"nx":28,"ny":28,"refTime":"2024-11-23T09:00:00:Z","depth":0,"parameterNumber":3,"parameterNumberName":"V-component_of_WINDS"},"data":[0,0,0,0,0,0,0,0,0,0,0,0,0,0,0,0,0,0,0,0,0,0,0,0,0,0,0,0,0,0,0,0,0,0,0,0,0,0,0,0,0,0,0,0,0,0,0,0,0,0,0,0,0,0,0,0,0,0,1.92,1.92,0,1.9217,1.9218,1.9218,1.9171,1.9169,1.9168,1.9166,1.9185,1.9187,1.9188,0,0,0,0,0,0,0,0,0,0,0,0,0,1.9124,1.9126,1.92,1.92,1.92,1.9217,1.9218,1.9218,1.9171,1.9169,1.9167,1.9166,1.9184,1.9186,1.9189,0,0,0,0,0,0,0,0,0,0,0,0,0,1.9151,1.9127,1.92,1.9179,1.9177,1.9217,1.9218,1.9218,1.9171,1.9169,1.9167,1.9165,1.9183,1.9186,1.9189,1.925,0,0,1.9197,1.9199,0,0,0,0,0,0,0,0,1.915,1.9154,1.9182,1.918,1.9178,1.9189,1.9198,1.9229,1.9172,1.9174,1.9166,1.9164,1.9188,1.919,1.9199,1.9251,1.9252,1.9198,1.9199,1.9201,1.9201,0,0,0,0,0,0,0,1.9148,1.9153,1.9207,1.9182,1.918,1.9168,1.917,1.9203,1.9193,1.9173,1.917,1.9172,1.9187,1.9196,1.9199,1.9252,1.9198,1.92,1.9202,1.9203,1.9353,1.9356,0,0,0,0,0,0,1.9149,1.9152,1.9206,1.9207,1.9158,1.9171,1.9173,1.9188,1.9193,1.9191,1.9174,1.917,1.9192,1.9196,1.9199,1.9269,1.9201,1.9203,1.9205,1.9351,1.9354,1.9356,0,0,0,0,0,0,1.9147,1.9154,1.9205,1.9179,1.9184,1.9175,1.9193,1.919,1.9199,1.9193,1.9191,1.9186,1.9191,1.9195,1.9237,1.9269,1.9205,1.9207,1.9348,1.9352,1.9355,1.9411,0,0,0,0,0,0,1.9145,1.9154,1.9177,1.9179,1.9186,1.9244,1.9195,1.9192,1.9204,1.9198,1.9203,1.9202,1.9189,1.9233,1.924,1.9272,1.9209,1.9345,1.935,1.9354,1.9407,1.9416,1.9425,0,0,0,0,0,1.9143,1.9193,1.9179,1.9186,1.9215,1.9246,1.9249,1.9233,1.9207,1.923,1.9226,1.9202,1.9265,1.9238,1.9245,1.9279,1.9343,1.9349,1.9354,1.9403,1.9414,1.9425,0,0,0,0,0,0,1.9196,1.9193,1.9177,1.923,1.9238,1.9238,1.9267,1.9247,1.9263,1.9258,1.9238,1.9239,1.9284,1.9286,1.9256,1.9337,1.9299,1.9306,1.9334,1.9345,1.9354,1.9352,1.9212,0,0,0,0,0,1.9214,1.9239,1.9235,1.9282,1.9287,1.9276,1.9289,1.9276,1.9284,1.9287,1.9287,1.9295,1.9317,1.9331,1.9351,1.9407,1.9406,1.9433,1.9442,1.945,1.9455,1.9483,1.9494,1.9374,1.9374,1.9373,0,0,1.9251,1.9253,1.927,1.9293,1.9298,1.9323,1.928,1.931,1.9328,1.9292,1.9331,1.9331,1.9339,1.9388,1.9409,1.939,1.9489,1.9456,1.9462,1.9464,1.9489,1.9501,1.9511,1.9377,1.9376,1.9376,0,0,1.9332,1.9336,1.9374,1.938,1.9387,1.938,1.9389,1.9391,1.9389,1.9428,1.94,1.9422,1.9461,1.9467,1.9475,1.9556,1.9534,1.9563,1.961,1.9637,1.9646,1.9654,1.9681,1.9691,1.9569,1.9569,1.9569,0,1.9377,1.9415,1.9397,1.9427,1.9437,1.9405,1.9443,1.9449,1.9463,1.9471,1.945,1.9495,1.9499,1.9547,1.9566,1.9575,1.9583,1.9562,1.9646,1.9654,1.9662,1.9687,1.9697,1.9572,1.9572,1.9572,1.9571,0,1.9469,1.9495,1.9525,1.9538,1.9552,1.9586,1.9572,1.9588,1.9574,1.9568,1.9607,1.961,1.9628,1.9639,1.9626,1.9685,1.9673,1.965,1.9611,1.9677,1.97,1.971,1.9577,1.9576,1.9575,1.9574,0,0,1.9584,1.9585,1.9596,1.96,1.9606,1.9625,1.9658,1.9675,1.9688,1.9699,1.9725,1.9757,1.9734,1.9743,1.973,1.9754,1.9815,1.9727,1.9727,1.9742,1.9879,1.9895,1.9907,1.9801,1.9803,1.9805,1.9877,0,1.9661,1.9716,1.9699,1.9754,1.9777,1.9746,1.9774,1.978,1.9775,1.9794,1.9789,1.9811,1.9781,1.9786,1.9808,1.9803,1.9842,1.9798,1.9824,1.9825,1.9821,1.9919,1.9937,2.0005,1.9886,1.9888,1.9889,0,1.9759,1.9772,1.9828,1.9827,1.9837,1.9862,1.9875,1.9894,1.99,1.9894,1.9904,1.9886,1.9916,1.9879,1.992,1.989,1.99,1.9899,1.9901,1.9902,1.986,1.992,2.0027,2.0037,1.9904,1.9903,1.9901,0,1.9834,1.9866,1.9903,1.9908,1.9909,1.9927,1.9928,1.9931,1.9942,1.9954,1.9961,1.9977,1.9985,1.9998,1.9984,1.9958,2.0026,1.9988,2.0022,2.0022,2.0036,2.0035,2.0144,2.0046,2.0046,2.0045,2.0045,0,1.9921,1.9957,1.9936,1.9959,1.9997,1.9978,2.0017,2.0014,2.0017,2.0038,2.0014,2.0034,2.0015,2.0034,2.0023,2.0058,2.0062,2.0058,2.0054,2.0059,2.0059,2.0064,2.0058,2.0048,2.0047,2.0047,2.0046,0,2.0011,1.9999,2.0037,2.0034,2.0034,2.0062,2.006,2.008,2.0073,2.01,2.0106,2.0095,2.0115,2.0103,2.0124,2.0117,2.0161,2.0152,2.0159,2.0156,2.0189,2.0185,2.0303,2.0317,2.0211,2.0212,2.0213,0,2.0067,2.0093,2.0092,2.0104,2.0106,2.0127,2.0137,2.0119,2.0131,2.0138,2.0158,2.0176,2.0189,2.0223,2.0217,2.0232,2.0222,2.0263,2.0224,2.0228,2.022,2.0218,2.022,2.027,2.0271,2.0272,2.0273,0,2.0166,2.0158,2.0174,2.0187,2.02,2.021,2.0218,2.0229,2.0211,2.0225,2.0245,2.0256,2.0276,2.0294,2.0307,2.0307,2.0287,2.0285,2.0293,2.0297,2.0299,2.0297,2.0178,2.0282,2.0281,2.028,2.028,2.028,2.0239,2.026,2.0262,2.0279,2.0283,2.029,2.0309,2.0304,2.032,2.0334,2.0323,2.0346,2.035,2.0365,2.0368,2.0386,2.0369,2.0382,2.0384,2.0387,2.0391,2.0298,2.0388,2.0388,2.0388,2.0387,2.0387,0,2.0335,2.0334,2.0351,2.0361,2.0375,2.0354,2.0361,2.0374,2.0394,2.0399,2.0412,2.0434,2.0451,2.0446,2.0461,2.0476,2.0466,2.048,2.0478,2.0478,2.0406,2.0396,2.0487,2.0487,2.0487,2.0487,2.0487,2.0487,2.0386,2.0419,2.0412,2.0446,2.0445,2.0467,2.0472,2.0479,2.0482,2.0507,2.0521,2.0517,2.0517,2.0532,2.0546,2.0544,2.0549,2.0566,2.0561,2.0493,2.0483,2.0474,2.0464,2.0568,2.0568,2.0631,2.0631,2.0632]}]]